Tracking 20228 objects as of 17-Jan-2020
HD Live streaming from Space Station
objects crossing your sky now

FENGYUN 1C DEB

Track FENGYUN 1C DEB now!
10-day predictions


NORAD ID: 31731
Int'l Code: 1999-025CEE
Perigee: 822.9 km
Apogee: 843.2 km
Inclination: 99.3 °
Period: 101.4 minutes
Semi major axis: 7204 km
RCS: 0.0064 m2 (small)
Launch date: May 10, 1999
Source: People's Republic of China (PRC)
Launch site: Taiyaun Space Center, China (TSC)

Note: This is SATELLITE DEBRIS
aabbcc
Your satellite tracking list
Your tracking list is empty




NASA's NSSDC Master Catalog

Two Line Element Set (TLE):
1 31731U 99025CEE 20015.15140973  .00000419  00000-0  22012-3 0  9992
2 31731  99.2890 265.1871 0014116 136.9504 223.2778 14.19837408651429
Source of the keplerian elements: AFSPC